[[{"header":{"parameterUnit":"m.s-1","parameterCategory":1,"la1":30.2991,"la2":30.254,"lo1":-89.0895,"lo2":-89.0444,"dy":0.0017,"dx":0.0017,"nx":28,"ny":28,"refTime":"2025-03-26T03:00:00:Z","depth":0,"parameterNumber":2,"parameterNumberName":"U-component_of_WINDS"},"data":[0,0,0,0,0,0,0,0,0,0,0,0,0,0,0,0,0,0,0,0,0,0,0,0,0,0,0,0,0,0,0,0,0,0,0,0,0,0,0,0,0,0,0,0,0,0,0,0,0,0,0,0,0,0,0,0,0,0,-4.2332,-4.2333,0,-4.2396,-4.2397,-4.2398,-4.2369,-4.2368,-4.2366,-4.2365,-4.243,-4.2433,-4.2436,0,0,0,0,0,0,0,0,0,0,0,0,0,-4.2186,-4.2189,-4.2332,-4.2333,-4.2334,-4.2396,-4.2397,-4.2398,-4.237,-4.2368,-4.2366,-4.2364,-4.2429,-4.2433,-4.2437,0,0,0,0,0,0,0,0,0,0,0,0,0,-4.225,-4.219,-4.2332,-4.2327,-4.2327,-4.2396,-4.2397,-4.2398,-4.237,-4.2368,-4.2365,-4.2363,-4.2428,-4.2432,-4.2437,-4.2514,0,0,-4.2452,-4.2454,0,0,0,0,0,0,0,0,-4.2246,-4.2255,-4.2327,-4.2328,-4.2328,-4.2372,-4.237,-4.2437,-4.2371,-4.2354,-4.2365,-4.2362,-4.2413,-4.2419,-4.2436,-4.2517,-4.252,-4.2452,-4.2455,-4.2457,-4.2459,0,0,0,0,0,0,0,-4.2242,-4.2252,-4.2357,-4.2328,-4.2329,-4.2322,-4.2329,-4.2382,-4.2396,-4.2355,-4.2353,-4.2361,-4.2413,-4.2431,-4.2437,-4.2521,-4.2452,-4.2456,-4.2459,-4.2461,-4.267,-4.2673,0,0,0,0,0,0,-4.2237,-4.2249,-4.2355,-4.2359,-4.228,-4.2327,-4.2334,-4.2361,-4.2395,-4.2398,-4.2363,-4.236,-4.2424,-4.2432,-4.2439,-4.2532,-4.2457,-4.2462,-4.2465,-4.2668,-4.2671,-4.2674,0,0,0,0,0,0,-4.2234,-4.2247,-4.2353,-4.2304,-4.2317,-4.2332,-4.2362,-4.2363,-4.2382,-4.2401,-4.2404,-4.238,-4.2423,-4.2433,-4.2496,-4.2534,-4.2464,-4.2468,-4.2665,-4.2669,-4.2672,-4.2717,0,0,0,0,0,0,-4.223,-4.2246,-4.2275,-4.2304,-4.2319,-4.2408,-4.2364,-4.2366,-4.239,-4.2386,-4.2417,-4.242,-4.2422,-4.2489,-4.2501,-4.2539,-4.2472,-4.2661,-4.2666,-4.2671,-4.2713,-4.2722,-4.2731,0,0,0,0,0,-4.2225,-4.2285,-4.2277,-4.229,-4.2356,-4.241,-4.2419,-4.2419,-4.2393,-4.2423,-4.2436,-4.2419,-4.2529,-4.2496,-4.2509,-4.2549,-4.2659,-4.2665,-4.2671,-4.2708,-4.272,-4.2731,0,0,0,0,0,0,-4.2258,-4.2288,-4.228,-4.235,-4.2378,-4.2405,-4.2442,-4.2432,-4.2467,-4.2462,-4.2461,-4.2468,-4.2534,-4.2548,-4.2512,-4.2626,-4.259,-4.2599,-4.2614,-4.2626,-4.2635,-4.2629,-4.2476,0,0,0,0,0,-4.2274,-4.2316,-4.234,-4.24,-4.2415,-4.2426,-4.245,-4.2448,-4.2477,-4.2488,-4.2506,-4.2534,-4.2575,-4.2601,-4.264,-4.2716,-4.2722,-4.275,-4.2759,-4.2767,-4.2774,-4.2815,-4.2828,-4.2694,-4.2694,-4.2693,0,0,-4.2306,-4.2328,-4.2354,-4.2407,-4.2428,-4.2472,-4.2436,-4.2483,-4.2515,-4.2495,-4.2556,-4.2571,-4.2602,-4.2672,-4.2704,-4.2686,-4.2813,-4.2774,-4.278,-4.2783,-4.2823,-4.2836,-4.2847,-4.2698,-4.2697,-4.2696,0,0,-4.2387,-4.2408,-4.246,-4.2483,-4.2516,-4.2524,-4.2537,-4.2567,-4.2576,-4.2637,-4.2623,-4.2663,-4.2733,-4.2756,-4.2777,-4.2871,-4.2857,-4.2884,-4.293,-4.2971,-4.2982,-4.2991,-4.3024,-4.3036,-4.2891,-4.2891,-4.2891,0,-4.2422,-4.2487,-4.2489,-4.2538,-4.2562,-4.2547,-4.2601,-4.2623,-4.2667,-4.2684,-4.2664,-4.2753,-4.2773,-4.2849,-4.2872,-4.289,-4.2905,-4.2878,-4.298,-4.299,-4.2998,-4.3029,-4.3042,-4.2894,-4.2894,-4.2893,-4.2893,0,-4.2529,-4.2575,-4.2613,-4.2657,-4.2686,-4.2737,-4.2747,-4.2776,-4.2773,-4.2784,-4.2847,-4.2872,-4.2916,-4.2934,-4.2932,-4.3011,-4.2998,-4.298,-4.2942,-4.3014,-4.3043,-4.3055,-4.2898,-4.2897,-4.2896,-4.2896,0,0,-4.2628,-4.2675,-4.2689,-4.2709,-4.2746,-4.2781,-4.2833,-4.2876,-4.2901,-4.2934,-4.2976,-4.3038,-4.3021,-4.3046,-4.3046,-4.3082,-4.3155,-4.3059,-4.306,-4.3075,-4.3243,-4.3255,-4.3269,-4.3147,-4.315,-4.3152,-4.324,0,-4.2711,-4.28,-4.2805,-4.2886,-4.2928,-4.2917,-4.2962,-4.299,-4.3003,-4.3041,-4.3054,-4.3098,-4.3073,-4.3088,-4.3123,-4.3138,-4.3188,-4.3132,-4.3187,-4.3188,-4.3176,-4.3284,-4.3297,-4.3379,-4.3252,-4.3254,-4.3255,0,-4.2817,-4.2854,-4.2939,-4.2972,-4.299,-4.303,-4.3071,-4.3108,-4.3141,-4.3147,-4.3176,-4.3172,-4.3226,-4.3189,-4.3263,-4.3225,-4.3249,-4.326,-4.3263,-4.3266,-4.3224,-4.3289,-4.3405,-4.3417,-4.3273,-4.3272,-4.327,0,-4.288,-4.295,-4.3011,-4.3029,-4.3069,-4.3098,-4.3116,-4.3146,-4.3173,-4.3209,-4.3227,-4.3269,-4.3292,-4.3326,-4.3334,-4.3306,-4.3408,-4.3372,-4.3414,-4.3414,-4.3433,-4.3431,-4.3553,-4.3452,-4.3452,-4.3452,-4.3451,0,-4.297,-4.3022,-4.304,-4.3076,-4.3136,-4.3142,-4.32,-4.3217,-4.3245,-4.3285,-4.3279,-4.3317,-4.3327,-4.3367,-4.3375,-4.3435,-4.3446,-4.3452,-4.3453,-4.3451,-4.345,-4.3464,-4.3458,-4.3455,-4.3454,-4.3454,-4.3453,0,-4.3047,-4.3061,-4.3126,-4.316,-4.317,-4.3212,-4.3241,-4.3277,-4.3291,-4.3342,-4.3354,-4.3375,-4.3422,-4.3435,-4.3491,-4.3496,-4.3567,-4.3563,-4.3556,-4.3555,-4.3596,-4.3591,-4.3729,-4.3747,-4.3636,-4.3637,-4.3638,0,-4.3102,-4.3143,-4.3182,-4.3209,-4.3228,-4.3272,-4.3299,-4.3308,-4.3337,-4.3379,-4.341,-4.3458,-4.3495,-4.3572,-4.3592,-4.3636,-4.3632,-4.3678,-4.3638,-4.3636,-4.3631,-4.3628,-4.3632,-4.3684,-4.3685,-4.3686,-4.3687,0,-4.3198,-4.3204,-4.3244,-4.3287,-4.332,-4.3355,-4.3388,-4.341,-4.3424,-4.3458,-4.3506,-4.3536,-4.3595,-4.3642,-4.3687,-4.3706,-4.3699,-4.37,-4.3712,-4.3709,-4.3702,-4.3705,-4.3574,-4.3696,-4.3695,-4.3694,-4.3694,-4.3693,-4.3265,-4.3301,-4.3334,-4.3379,-4.3406,-4.3437,-4.3473,-4.3492,-4.3533,-4.3581,-4.3585,-4.3638,-4.3672,-4.3732,-4.3754,-4.3796,-4.3783,-4.38,-4.3804,-4.3808,-4.381,-4.3698,-4.3805,-4.3805,-4.3804,-4.3804,-4.3804,0,-4.3359,-4.3381,-4.3423,-4.347,-4.3506,-4.3498,-4.3535,-4.3566,-4.3612,-4.3645,-4.3683,-4.374,-4.3787,-4.3812,-4.3858,-4.3887,-4.3885,-4.3899,-4.3895,-4.39,-4.3821,-4.3805,-4.39,-4.39,-4.39,-4.39,-4.39,-4.39,-4.3412,-4.3472,-4.3482,-4.3556,-4.3578,-4.363,-4.3652,-4.3681,-4.3707,-4.3771,-4.381,-4.3827,-4.3857,-4.3906,-4.3949,-4.3955,-4.3971,-4.3987,-4.3991,-4.3916,-4.3906,-4.3896,-4.3881,-4.3991,-4.3991,-4.4067,-4.4067,-4.4068]},{"header":{"parameterUnit":"m.s-1","parameterCategory":1,"la1":30.2991,"la2":30.254,"lo1":-89.0895,"lo2":-89.0444,"dy":0.0017,"dx":0.0017,"nx":28,"ny":28,"refTime":"2025-03-26T03:00:00:Z","depth":0,"parameterNumber":3,"parameterNumberName":"V-component_of_WINDS"},"data":[0,0,0,0,0,0,0,0,0,0,0,0,0,0,0,0,0,0,0,0,0,0,0,0,0,0,0,0,0,0,0,0,0,0,0,0,0,0,0,0,0,0,0,0,0,0,0,0,0,0,0,0,0,0,0,0,0,0,2.4825,2.4826,0,2.4896,2.4897,2.4897,2.498,2.4981,2.4982,2.4984,2.5051,2.5052,2.5052,0,0,0,0,0,0,0,0,0,0,0,0,0,2.4758,2.4759,2.4825,2.4826,2.4827,2.4896,2.4897,2.4898,2.498,2.4981,2.4983,2.4984,2.5051,2.5052,2.5052,0,0,0,0,0,0,0,0,0,0,0,0,0,2.4803,2.4759,2.4825,2.4876,2.4881,2.4895,2.4897,2.4898,2.4979,2.4981,2.4983,2.4985,2.5051,2.5051,2.5052,2.502,0,0,2.5055,2.5056,0,0,0,0,0,0,0,0,2.4801,2.4806,2.4868,2.4873,2.4879,2.4931,2.4898,2.4939,2.4979,2.4942,2.4984,2.4986,2.5009,2.5014,2.5023,2.5023,2.5026,2.5055,2.5056,2.5056,2.5056,0,0,0,0,0,0,0,2.4797,2.4803,2.4853,2.4868,2.4875,2.4895,2.4903,2.4906,2.4964,2.4945,2.4952,2.4959,2.5013,2.5021,2.5025,2.5027,2.5055,2.5056,2.5057,2.5057,2.5007,2.5005,0,0,0,0,0,0,2.4787,2.48,2.4851,2.4855,2.4844,2.4894,2.4904,2.4912,2.4964,2.4974,2.4957,2.4963,2.5019,2.5024,2.5027,2.4995,2.5056,2.5057,2.5058,2.5009,2.5007,2.5005,0,0,0,0,0,0,2.4785,2.4791,2.4848,2.4829,2.4838,2.4894,2.4902,2.4913,2.4922,2.4973,2.4984,2.4956,2.5021,2.5026,2.5022,2.4998,2.5057,2.5058,2.5011,2.5008,2.5006,2.4928,0,0,0,0,0,0,2.4783,2.479,2.4778,2.4828,2.4839,2.4842,2.4901,2.4913,2.4924,2.4931,2.4975,2.4984,2.5023,2.502,2.5023,2.5001,2.5059,2.5014,2.501,2.5007,2.4933,2.4923,2.4915,0,0,0,0,0,2.478,2.4752,2.4777,2.4783,2.4826,2.484,2.4846,2.4893,2.4921,2.4911,2.4944,2.4982,2.5,2.5019,2.5023,2.5001,2.5015,2.5011,2.5007,2.4937,2.4925,2.4915,0,0,0,0,0,0,2.4696,2.476,2.4788,2.4776,2.4802,2.4854,2.4842,2.4878,2.4895,2.4902,2.4957,2.4966,2.4956,2.4978,2.4998,2.4973,2.5014,2.501,2.496,2.4948,2.4939,2.4934,2.506,0,0,0,0,0,2.4676,2.4683,2.4738,2.4722,2.4734,2.4785,2.4793,2.4827,2.4856,2.4867,2.49,2.4926,2.4938,2.4944,2.4957,2.4937,2.4948,2.4923,2.4914,2.4906,2.4902,2.4895,2.4885,2.4991,2.4991,2.4991,0,0,2.4634,2.467,2.4671,2.4706,2.473,2.4737,2.4794,2.4797,2.4803,2.4867,2.4867,2.4892,2.4924,2.4912,2.4908,2.493,2.4876,2.4901,2.4894,2.4895,2.489,2.488,2.4871,2.4988,2.4988,2.4989,0,0,2.4562,2.4589,2.458,2.4605,2.4642,2.4677,2.4674,2.4722,2.4742,2.4743,2.4792,2.4798,2.4816,2.4838,2.4852,2.479,2.4827,2.4793,2.4744,2.4736,2.4728,2.4721,2.4701,2.4693,2.4789,2.4789,2.4788,0,2.4505,2.4518,2.457,2.4572,2.4586,2.4648,2.4639,2.4659,2.4698,2.4706,2.473,2.4756,2.4782,2.4777,2.4763,2.4771,2.477,2.4788,2.4725,2.4719,2.4713,2.4694,2.4686,2.4784,2.4785,2.4785,2.4786,0,2.4447,2.4455,2.4443,2.4482,2.4495,2.449,2.4542,2.4548,2.4581,2.4613,2.4614,2.4648,2.467,2.4671,2.4702,2.4671,2.4684,2.4715,2.4757,2.4698,2.4681,2.4674,2.4778,2.478,2.4781,2.4782,0,0,2.4323,2.4393,2.4388,2.4407,2.4454,2.4461,2.446,2.4484,2.4489,2.4514,2.4515,2.453,2.4561,2.4576,2.4611,2.4603,2.4555,2.4637,2.4638,2.4622,2.4525,2.4501,2.4492,2.458,2.4578,2.4577,2.4523,0,2.426,2.4265,2.4313,2.4303,2.4311,2.4371,2.437,2.4398,2.4429,2.444,2.4472,2.4483,2.4522,2.4532,2.4528,2.4562,2.4537,2.4566,2.4581,2.4581,2.4572,2.4483,2.4458,2.4405,2.4516,2.4515,2.4514,0,2.4188,2.4212,2.4203,2.4253,2.4258,2.4257,2.4285,2.4294,2.4328,2.435,2.4368,2.4408,2.441,2.4449,2.4453,2.4473,2.4481,2.4499,2.4498,2.4502,2.4544,2.4486,2.4389,2.4381,2.4504,2.4505,2.4506,0,2.41,2.413,2.413,2.4144,2.4201,2.4199,2.4223,2.4259,2.4271,2.4294,2.4303,2.4324,2.4336,2.4352,2.4397,2.4421,2.4396,2.4439,2.4415,2.4414,2.4408,2.4408,2.4312,2.4411,2.4411,2.4411,2.4411,0,2.4026,2.4019,2.4092,2.4091,2.4085,2.414,2.4133,2.4162,2.4193,2.4199,2.4251,2.4255,2.4313,2.4324,2.4358,2.4357,2.4362,2.438,2.439,2.4376,2.4374,2.4383,2.4389,2.4409,2.441,2.441,2.441,0,2.3927,2.3975,2.398,2.4034,2.4048,2.4041,2.4088,2.409,2.4124,2.4131,2.4136,2.4189,2.4205,2.4251,2.4277,2.43,2.4289,2.4306,2.4279,2.4285,2.426,2.4262,2.4167,2.4158,2.4261,2.426,2.426,0,2.3877,2.3874,2.3929,2.3939,2.3961,2.3974,2.3988,2.4041,2.4053,2.4093,2.409,2.411,2.4129,2.4151,2.4191,2.4212,2.4231,2.4196,2.4234,2.4222,2.4232,2.4232,2.4233,2.4188,2.4187,2.4185,2.4185,0,2.3784,2.3809,2.3828,2.3856,2.3871,2.3895,2.3921,2.3925,2.3985,2.3996,2.4014,2.4029,2.4058,2.4078,2.4105,2.4128,2.4166,2.4172,2.4169,2.4155,2.414,2.415,2.4258,2.4174,2.4175,2.4176,2.4177,2.4177,2.371,2.3711,2.3751,2.377,2.3797,2.3821,2.3826,2.3862,2.3879,2.3908,2.3938,2.3953,2.3988,2.403,2.405,2.4062,2.4082,2.4076,2.4074,2.4072,2.4067,2.4138,2.4067,2.4067,2.4067,2.4068,2.4068,0,2.3621,2.3651,2.3668,2.3705,2.3721,2.3757,2.3789,2.3799,2.3812,2.3843,2.3862,2.3883,2.3903,2.3945,2.3968,2.397,2.3988,2.3974,2.3975,2.398,2.4046,2.4049,2.3959,2.3959,2.3959,2.3959,2.3959,2.396,2.3577,2.3581,2.3611,2.3628,2.3657,2.3674,2.3689,2.3712,2.3737,2.3759,2.3777,2.3805,2.384,2.3867,2.3887,2.3899,2.3905,2.3886,2.3904,2.3965,2.3975,2.3985,2.3987,2.3887,2.3887,2.3837,2.3836,2.3836]}]]